Time,TemperatureF,DewpointF,PressureIn,WindDirection,WindDirectionDegrees,WindSpeedMPH,WindSpeedGustMPH,Humidity,HourlyPrecipIn,Conditions,Clouds,dailyrainin,SoftwareType,DateUTC
2013-05-12 00:03:00,-999.0,-99.9,30.01,WSW,248,0.0,2.0,94,0.00,,,0.07,,2013-05-12 04:03:00,
2013-05-12 00:12:00,61.0,59.0,30.01,WSW,248,0.0,2.0,94,0.00,,,0.07,,2013-05-12 04:12:00,
2013-05-12 00:22:00,61.0,59.0,30.01,WSW,248,1.0,2.0,94,0.00,,,0.07,,2013-05-12 04:22:00,
2013-05-12 00:33:00,61.0,59.0,30.01,WSW,248,1.0,2.0,94,0.00,,,0.07,,2013-05-12 04:33:00,
2013-05-12 00:43:00,61.0,59.0,30.01,WSW,248,1.0,2.0,94,0.00,,,0.07,,2013-05-12 04:43:00,
2013-05-12 00:52:00,61.0,59.0,30.01,West,271,1.0,3.0,93,0.00,,,0.07,,2013-05-12 04:52:00,
2013-05-12 01:02:00,61.0,59.0,30.01,West,271,1.0,3.0,93,0.00,,,0.07,,2013-05-12 05:02:00,
2013-05-12 01:12:00,61.0,59.0,30.01,West,271,1.0,3.0,93,0.00,,,0.07,,2013-05-12 05:12:00,
2013-05-12 01:22:00,60.0,58.0,30.02,NNW,346,1.0,3.0,92,0.00,,,0.07,,2013-05-12 05:22:00,
2013-05-12 01:32:00,60.0,58.0,30.02,NNW,346,1.0,3.0,92,0.00,,,0.07,,2013-05-12 05:32:00,
2013-05-12 01:42:00,60.0,58.0,30.02,NNW,346,1.0,3.0,92,0.00,,,0.07,,2013-05-12 05:42:00,
2013-05-12 01:52:00,60.0,57.0,30.02,WNW,282,1.0,3.0,89,0.00,,,0.07,,2013-05-12 05:52:00,
2013-05-12 02:02:00,60.0,57.0,30.02,WNW,282,1.0,3.0,89,0.00,,,0.07,,2013-05-12 06:02:00,
2013-05-12 02:11:00,60.0,57.0,30.02,WNW,282,1.0,3.0,89,0.00,,,0.07,,2013-05-12 06:11:00,
2013-05-12 02:21:00,60.0,57.0,30.02,WNW,282,1.0,3.0,89,0.00,,,0.07,,2013-05-12 06:21:00,
2013-05-12 02:32:00,60.0,57.0,30.02,WNW,282,1.0,3.0,89,0.00,,,0.07,,2013-05-12 06:32:00,
2013-05-12 10:21:00,60.0,52.0,30.11,West,261,1.0,5.0,75,0.00,,,0.07,,2013-05-12 14:21:00,
2013-05-12 10:32:00,60.0,52.0,30.11,West,261,1.0,5.0,75,0.00,,,0.07,,2013-05-12 14:32:00,
2013-05-12 10:42:00,62.0,51.0,30.12,NW,304,1.0,3.0,66,0.00,,,0.07,,2013-05-12 14:42:00,
2013-05-12 10:52:00,62.0,51.0,30.12,NW,304,1.0,3.0,66,0.00,,,0.07,,2013-05-12 14:52:00,
2013-05-12 11:01:00,62.0,51.0,30.12,NW,304,1.0,3.0,66,0.00,,,0.07,,2013-05-12 15:01:00,
2013-05-12 11:11:00,62.0,51.0,30.12,NW,304,1.0,3.0,66,0.00,,,0.07,,2013-05-12 15:11:00,
2013-05-12 11:21:00,64.0,50.0,30.13,West,267,0.0,5.0,60,0.00,,,0.07,,2013-05-12 15:21:00,
2013-05-12 11:34:00,64.0,50.0,30.13,West,267,0.0,5.0,60,0.00,,,0.07,,2013-05-12 15:34:00,
2013-05-12 11:42:00,64.0,50.0,30.13,West,267,0.0,5.0,60,0.00,,,0.07,,2013-05-12 15:42:00,
2013-05-12 11:53:00,66.0,46.0,30.13,WNW,302,0.0,6.0,48,0.00,,,0.07,,2013-05-12 15:53:00,
2013-05-12 12:02:00,66.0,46.0,30.13,WNW,302,0.0,6.0,48,0.00,,,0.07,,2013-05-12 16:02:00,
2013-05-12 12:13:00,66.0,46.0,30.13,WNW,302,0.0,6.0,48,0.00,,,0.07,,2013-05-12 16:13:00,
2013-05-12 12:23:00,67.0,45.0,30.14,West,259,4.0,7.0,45,0.00,,,0.07,,2013-05-12 16:23:00,
2013-05-12 12:33:00,67.0,45.0,30.14,West,259,4.0,7.0,45,0.00,,,0.07,,2013-05-12 16:33:00,
2013-05-12 12:42:00,67.0,45.0,30.14,West,259,4.0,7.0,45,0.00,,,0.07,,2013-05-12 16:42:00,
2013-05-12 12:53:00,69.0,46.0,30.14,West,269,2.0,5.0,43,0.00,,,0.07,,2013-05-12 16:53:00,
2013-05-12 13:02:00,69.0,46.0,30.14,West,269,2.0,5.0,43,0.00,,,0.07,,2013-05-12 17:02:00,
2013-05-12 13:12:00,69.0,46.0,30.14,West,269,2.0,5.0,43,0.00,,,0.07,,2013-05-12 17:12:00,
2013-05-12 13:22:00,70.0,48.0,30.13,WNW,298,1.0,4.0,46,0.00,,,0.07,,2013-05-12 17:22:00,
2013-05-12 13:32:00,70.0,48.0,30.13,WNW,298,1.0,4.0,46,0.00,,,0.07,,2013-05-12 17:32:00,
2013-05-12 13:42:00,70.0,48.0,30.13,WNW,298,1.0,4.0,46,0.00,,,0.07,,2013-05-12 17:42:00,
2013-05-12 13:53:00,68.0,43.0,30.13,WSW,257,3.0,9.0,41,0.00,,,0.07,,2013-05-12 17:53:00,
2013-05-12 14:01:00,68.0,43.0,30.13,WSW,257,3.0,9.0,41,0.00,,,0.07,,2013-05-12 18:01:00,
2013-05-12 14:12:00,68.0,43.0,30.13,WSW,257,3.0,9.0,41,0.00,,,0.07,,2013-05-12 18:12:00,
2013-05-12 14:22:00,69.0,42.0,30.12,West,264,2.0,7.0,38,0.00,,,0.07,,2013-05-12 18:22:00,
2013-05-12 14:32:00,69.0,42.0,30.12,West,264,2.0,7.0,38,0.00,,,0.07,,2013-05-12 18:32:00,
2013-05-12 14:42:00,69.0,42.0,30.12,West,264,2.0,7.0,38,0.00,,,0.07,,2013-05-12 18:42:00,
2013-05-12 14:52:00,71.0,43.0,30.11,West,268,2.0,5.0,36,0.00,,,0.07,,2013-05-12 18:52:00,
2013-05-12 15:01:00,71.0,43.0,30.11,West,268,2.0,5.0,36,0.00,,,0.07,,2013-05-12 19:01:00,
2013-05-12 15:11:00,71.0,43.0,30.11,West,268,2.0,5.0,36,0.00,,,0.07,,2013-05-12 19:11:00,
2013-05-12 15:22:00,69.0,40.0,30.11,WSW,253,4.0,10.0,35,0.00,,,0.07,,2013-05-12 19:22:00,
2013-05-12 15:32:00,69.0,40.0,30.11,WSW,253,4.0,10.0,35,0.00,,,0.07,,2013-05-12 19:32:00,
2013-05-12 15:42:00,69.0,42.0,30.10,NNW,340,1.0,8.0,37,0.00,,,0.07,,2013-05-12 19:42:00,
2013-05-12 15:52:00,69.0,42.0,30.10,NNW,340,1.0,8.0,37,0.00,,,0.07,,2013-05-12 19:52:00,
2013-05-12 16:02:00,69.0,42.0,30.10,NNW,340,1.0,8.0,37,0.00,,,0.07,,2013-05-12 20:02:00,
2013-05-12 16:11:00,69.0,42.0,30.10,NNW,340,1.0,8.0,37,0.00,,,0.07,,2013-05-12 20:11:00,
2013-05-12 16:21:00,67.0,40.0,30.10,West,275,1.0,5.0,37,0.00,,,0.07,,2013-05-12 20:21:00,
2013-05-12 16:32:00,67.0,40.0,30.10,West,275,1.0,5.0,37,0.00,,,0.07,,2013-05-12 20:32:00,
2013-05-12 16:42:00,67.0,40.0,30.10,West,275,1.0,5.0,37,0.00,,,0.07,,2013-05-12 20:42:00,
2013-05-12 16:52:00,67.0,40.0,30.10,West,267,1.0,6.0,37,0.00,,,0.07,,2013-05-12 20:52:00,
2013-05-12 17:01:00,67.0,40.0,30.10,West,267,1.0,6.0,37,0.00,,,0.07,,2013-05-12 21:01:00,
2013-05-12 17:11:00,67.0,40.0,30.10,West,267,1.0,6.0,37,0.00,,,0.07,,2013-05-12 21:11:00,
2013-05-12 17:21:00,66.0,38.0,30.10,NW,305,1.0,5.0,35,0.00,,,0.06,,2013-05-12 21:21:00,
2013-05-12 17:33:00,66.0,38.0,30.10,NW,305,1.0,5.0,35,0.00,,,0.06,,2013-05-12 21:33:00,
2013-05-12 17:42:00,66.0,38.0,30.10,NW,305,1.0,5.0,35,0.00,,,0.06,,2013-05-12 21:42:00,
2013-05-12 17:53:00,66.0,38.0,30.11,NNW,331,1.0,5.0,35,0.00,,,0.06,,2013-05-12 21:53:00,
2013-05-12 18:02:00,66.0,38.0,30.11,NNW,331,1.0,5.0,35,0.00,,,0.06,,2013-05-12 22:02:00,
2013-05-12 18:12:00,66.0,38.0,30.11,NNW,331,1.0,5.0,35,0.00,,,0.06,,2013-05-12 22:12:00,
2013-05-12 18:23:00,66.0,38.0,30.11,NNW,331,1.0,5.0,35,0.00,,,0.06,,2013-05-12 22:23:00,
2013-05-12 18:52:00,65.0,36.0,30.12,West,271,1.0,7.0,34,0.00,,,0.06,,2013-05-12 22:52:00,
2013-05-12 19:02:00,65.0,36.0,30.12,West,271,1.0,7.0,34,0.00,,,0.06,,2013-05-12 23:02:00,
2013-05-12 19:12:00,65.0,36.0,30.12,West,271,1.0,7.0,34,0.00,,,0.06,,2013-05-12 23:12:00,
2013-05-12 19:22:00,64.0,38.0,30.11,North,5,0.0,3.0,38,0.00,,,0.02,,2013-05-12 23:22:00,
2013-05-12 19:32:00,64.0,38.0,30.11,North,5,0.0,3.0,38,0.00,,,0.02,,2013-05-12 23:32:00,
2013-05-12 19:42:00,64.0,38.0,30.11,North,5,0.0,3.0,38,0.00,,,0.02,,2013-05-12 23:42:00,
2013-05-12 19:52:00,63.0,36.0,30.12,West,269,0.0,3.0,36,0.00,,,0.02,,2013-05-12 23:52:00,
2013-05-12 20:01:00,63.0,36.0,30.12,West,269,0.0,3.0,36,0.00,,,0.02,,2013-05-13 00:01:00,
2013-05-12 20:11:00,63.0,36.0,30.12,West,269,0.0,3.0,36,0.00,,,0.02,,2013-05-13 00:11:00,
2013-05-12 20:22:00,62.0,37.0,30.13,NNW,330,0.0,1.0,39,0.00,,,0.00,,2013-05-13 00:22:00,
2013-05-12 20:32:00,62.0,37.0,30.13,NNW,330,0.0,1.0,39,0.00,,,0.00,,2013-05-13 00:32:00,
2013-05-12 20:42:00,62.0,37.0,30.13,NNW,330,0.0,1.0,39,0.00,,,0.00,,2013-05-13 00:42:00,
2013-05-12 20:52:00,62.0,37.0,30.13,NNW,330,0.0,1.0,39,0.00,,,0.00,,2013-05-13 00:52:00,
2013-05-12 21:01:00,62.0,37.0,30.13,NNW,330,0.0,1.0,39,0.00,,,0.00,,2013-05-13 01:01:00,
2013-05-12 23:22:00,54.0,39.0,30.16,WNW,291,0.0,1.0,56,0.00,,,0.00,,2013-05-13 03:22:00,
2013-05-12 23:33:00,54.0,39.0,30.16,WNW,291,0.0,1.0,56,0.00,,,0.00,,2013-05-13 03:33:00,
2013-05-12 23:42:00,54.0,39.0,30.16,WNW,291,0.0,1.0,56,0.00,,,0.00,,2013-05-13 03:42:00,
2013-05-12 23:53:00,53.0,38.0,30.16,WNW,291,0.0,1.0,57,0.00,,,0.00,,2013-05-13 03:53:00,